Regional Weather Roundup
Issued by NWS

Home | Current Version | Previous Version | Text Only | Print | Product List | Glossary Off
Versions: 1 2 3 4 5 6 7 8 9 10 11 12 13 14 15 16 17 18 19 20 21 22 23 24 25 26 27 28 29 30 31 32 33 34 35 36 37 38 39 40 41 42 43 44 45 46 47 48 49 50

000
ASUS45 KTFX 282204
RWRMT
MONTANA HOURLY WEATHER ROUNDUP
NATIONAL WEATHER SERVICE GREAT FALLS MT
304 PM MST SUN DEC 28 2014

NOTE: "FAIR" INDICATES FEW OR NO CLOUDS BELOW 12000 FEET WITH NO
SIGNIFICANT WEATHER AND/OR OBSTRUCTIONS TO VISIBILITY.

* THESE STATIONS ARE NOT UNDER NWS QUALITY CONTROL. THEY DO NOT
   REPORT WEATHER SUCH AS PRECIPITATION OR FOG.

MTZ001>007-043-282300-
WEST OF THE DIVIDE
CITY           SKY/WX    TMP DP  RH WIND       PRES   REMARKS
KALISPELL      CLOUDY    25  16  69 NE23      30.08R WCI  10
MISSOULA       LGT SNOW  27  25  92 SE12      30.02R VSB 2 1/2 WCI  16
BUTTE          LGT SNOW  21  16  81 N10       29.91R VSB 3/4  WCI  10
MULLAN PASS    SNOW      23  18  81 CALM      29.87R VSB 1/2
* ESSEX        N/A       18   6  59 SE5G11     N/A   WCI  11
* LINCOLN      N/A       16   8  71 E12G22     N/A   WCI   3
* LOOKOUT PASS N/A       24  23  96 N4         N/A
* POLSON       N/A       26  22  85 N1         N/A
* RONAN APT    CLOUDY    30  28  92 N/A        N/A
* SEELEY LAKE  N/A       27  22  81 W2         N/A
* THOMP F APT  PTSUNNY   16  12  84 S4         N/A
$$

MTZ008-052>055-282300-
SOUTHWEST MONTANA
CITY           SKY/WX    TMP DP  RH WIND       PRES   REMARKS
BOZEMAN        CLOUDY    21  16  81 NW15      29.96R WCI   7
DILLON         PTSUNNY   27  16  63 S10       29.89R WCI  18
* W YELLOWSTON PTCLDY    22  15  74 SW3G9      N/A
* THREE FORKS  CLOUDY    21  21 100 N15G20     N/A   WCI   7
* BOULDER HILL N/A       11   7  84 N21G27     N/A   WCI  -8
* MONIDA PASS  N/A       14  11  88 SE6        N/A   WCI   5
* RAYNOLDS PAS N/A       17   2  51 S10        N/A   WCI   5
* WHITEHALL    N/A       22  11  62 NE13G22    N/A   WCI  10
* WISE RIVER   N/A       25  18  75 N5G11      N/A   WCI  19
$$

MTZ009>010-012-014-046-048-049-054-282300-
EAST SLOPES AND CENTRAL MONTANA
CITY           SKY/WX    TMP DP  RH WIND       PRES   REMARKS
CUT BANK       LGT SNOW  12   9  88 N16       30.21R VSB 2    WCI  -5
GREAT FALLS    SNOW      12  10  92 N13       30.17R VSB 1/2  WCI  -3
HELENA         LGT SNOW  18   9  68 NW10      30.12R VSB 2 1/2 WCI   6
* DEARBORN     N/A       16  10  77 N8G15      N/A   WCI   5
* EAST GLACIER N/A        9   4  80 E13G18     N/A   WCI  -7
* MONARCH      N/A        7   3  83 NW9        N/A   WCI  -6
* PENDROY      N/A       10   9  96 VRB20G28    N/A   WCI  -9
* ROGERS PASS  N/A        8   4  84 S8G15      N/A   WCI  -4
* SWEET GRASS  N/A        9   8  96 N/A        N/A
$$

MTZ011-013-016-021-035-040-045-047-050-051-282300-
NORTH CENTRAL MONTANA
CITY           SKY/WX    TMP DP  RH WIND       PRES   REMARKS
HAVRE          HAZE      19  14  81 NE14      30.22R WCI   5
LEWISTOWN      SNOW      18  12  77 NW7       30.06R VSB 1/2  WCI   9
* N BAR RANCH  HAZE      16   9  74 N10G21    30.03R VSB 3    WCI   4
* CHESTER      N/A       17   9  71 NE10       N/A   WCI   5
* DENTON       N/A       15  12  88 NW13G20    N/A   WCI   1
* GEYSER       N/A       11   8  88 W22G27     N/A   WCI  -8
* JUDITH GAP   N/A       13  13 100 N30G35     N/A   WCI  -8
* LOMA         N/A       18  14  84 NW16       N/A   WCI   3
$$

MTZ017>020-022>027-061-062-282300-
NORTHEAST MONTANA
CITY           SKY/WX    TMP DP  RH WIND       PRES   REMARKS
GLASGOW        LGT SNOW  12   7  80 NE22      30.18R VSB 2 1/2 WCI  -7
GLENDIVE       CLOUDY    16  10  77 NE16      30.11R WCI   1
JORDAN         CLOUDY    18  12  77 NE14      30.12R WCI   4
SIDNEY         CLOUDY    12   7  80 N9        30.21R
WOLF POINT     CLOUDY    14   3  61 NE17      30.23R WCI  -2
* BEAVER HILL  N/A       16  12  84 NE14G19    N/A   WCI   2
* CIRCLE       N/A       13  10  88 N9G17      N/A   WCI   1
* LINDSAY DVD  N/A       14  12  92 NE17       N/A   WCI  -2
* NAVAJO       N/A        3  -2  79 NE11G17    N/A   WCI -13
* SACO         N/A       15   7  70 N14        N/A
$$

MTZ028>042-056>058-282300-
SOUTHCENTRAL AND SOUTHEAST MONTANA
CITY           SKY/WX    TMP DP  RH WIND       PRES   REMARKS
BAKER          LGT SNOW  21  18  88 E12       30.02R VSB 3/4  WCI   9
BILLINGS       LGT SNOW  25  21  85 NE15      29.99R VSB 1 3/4 WCI  13
LIVINGSTON     LGT SNOW  19  12  74 NW17      29.96R VSB 3/4  WCI   4
MILES CITY     SNOW      23  19  85 NE20      30.02R VSB 1/2  WCI   8
* LAUREL APT   CLOUDY    27  18  69 N6         N/A   WCI  20
* ROUNDUP APT  CLOUDY    18  10  71 N16G23     N/A   WCI   3
* ALZADA       N/A       26  15  63 E6         N/A   WCI  19
* HYSHAM       N/A       23  20  88 N4G13      N/A
* LAME DEER    N/A       23  21  92 W6         N/A   WCI  16
* REED POINT   N/A       27  23  85 NE7G14     N/A   WCI  19
* ROSCOE HILL  N/A       24  18  78 W1         N/A
$$

REGIONAL REPORTS...DAKOTAS
CITY           SKY/WX    TMP DP  RH WIND       PRES   REMARKS
WILLISTON      CLOUDY    10   0  64 NE13      30.24R WCI  -5
DICKINSON      LGT SNOW  16   9  74 NE15      30.09R VSB 2 1/2 WCI   1
CROSBY         PTSUNNY    0  -4  83 N9        30.31R WCI -15
WATFORD CITY   LGT SNOW   9   5  84 E12       30.19R WCI  -6
BISMARCK       LGT SNOW   9   3  76 E12       30.24R WCI  -6
GRAND FORKS    SUNNY      0  -8  68 N10       30.38R WCI -16
FARGO          SUNNY      3  -6  66 N17       30.34R WCI -17
BUFFALO SD     PTSUNNY   21  16  81 NE15      29.93R WCI   7
RAPID CITY     LGT SNOW  25  18  75 E6        29.96R WCI  18
$$

REGIONAL REPORTS...WYOMING/IDAHO/WASHINGTON
CITY           SKY/WX    TMP DP  RH WIND       PRES   REMARKS
GILLETTE       CLOUDY    25  12  58 CALM      29.88R
SHERIDAN       CLOUDY    25  14  63 NW3       29.91R
CODY           CLOUDY    18  12  77 CALM      29.87R
YELLOWSTONE LA PTCLDY    16   9  74 CALM      29.84R
SALMON         PTSUNNY   25  18  75 CALM      29.98S
MULLAN PASS    SNOW      23  18  81 CALM      29.87S VSB 1/2
SAND POINT     CLOUDY    32  28  85 NE12      30.05S WCI  23
SPOKANE        CLOUDY    30  27  89 CALM      30.05R
$$

REGIONAL REPORTS...ALBERTA
CITY           SKY/WX    TMP DP  RH WIND       PRES   REMARKS
LETHBRIDGE     LGT SNOW  14  10  84 NE10      30.29R VSB 3    WCI   1

$$




USA.gov is the U.S. government's official web portal to all federal, state and local government web resources and services.